[[{"header":{"parameterUnit":"m.s-1","parameterCategory":1,"la1":30.2991,"la2":30.254,"lo1":-89.0895,"lo2":-89.0444,"dy":0.0017,"dx":0.0017,"nx":28,"ny":28,"refTime":"2023-09-27T09:00:00:Z","depth":0,"parameterNumber":2,"parameterNumberName":"U-component_of_WINDS"},"data":[0,0,0,0,0,0,0,0,0,0,0,0,0,0,0,0,0,0,0,0,0,0,0,0,0,0,0,0,0,0,0,0,0,0,0,0,0,0,0,0,0,0,0,0,0,0,0,0,0,0,0,0,0,0,0,0,0,0,-5.8349,-5.835,0,-5.8394,-5.8395,-5.8395,-5.8224,-5.8219,-5.8214,-5.8209,-5.8256,-5.8261,-5.8267,0,0,0,0,0,0,0,0,0,0,0,0,0,-5.8116,-5.8122,-5.8349,-5.835,-5.8351,-5.8394,-5.8395,-5.8395,-5.8225,-5.8219,-5.8213,-5.8207,-5.8254,-5.8261,-5.8268,0,0,0,0,0,0,0,0,0,0,0,0,0,-5.8195,-5.8123,-5.8349,-5.8271,-5.8264,-5.8394,-5.8395,-5.8395,-5.8226,-5.8219,-5.8211,-5.8204,-5.8251,-5.826,-5.8269,-5.8477,0,0,-5.8296,-5.83,0,0,0,0,0,0,0,0,-5.8191,-5.8204,-5.8282,-5.8276,-5.8269,-5.8296,-5.8329,-5.8423,-5.8228,-5.8241,-5.8209,-5.82,-5.8275,-5.8282,-5.8307,-5.8479,-5.8481,-5.8297,-5.8302,-5.8306,-5.8309,0,0,0,0,0,0,0,-5.8186,-5.8201,-5.8367,-5.8283,-5.8276,-5.8233,-5.8236,-5.8346,-5.83,-5.8239,-5.8227,-5.8234,-5.827,-5.8299,-5.8307,-5.8481,-5.8297,-5.8305,-5.831,-5.8314,-5.8825,-5.8833,0,0,0,0,0,0,-5.819,-5.8198,-5.8366,-5.8368,-5.821,-5.8244,-5.8247,-5.8295,-5.8298,-5.8292,-5.8241,-5.8226,-5.8287,-5.8296,-5.8308,-5.855,-5.8306,-5.8315,-5.832,-5.8817,-5.8827,-5.8836,0,0,0,0,0,0,-5.8186,-5.8207,-5.8364,-5.828,-5.8296,-5.8256,-5.8311,-5.83,-5.8328,-5.83,-5.8291,-5.8278,-5.8281,-5.8295,-5.8436,-5.855,-5.8319,-5.8327,-5.8808,-5.882,-5.8832,-5.9039,0,0,0,0,0,0,-5.818,-5.8207,-5.8285,-5.8283,-5.8302,-5.8492,-5.8318,-5.8306,-5.8344,-5.8325,-5.8332,-5.8326,-5.8276,-5.8423,-5.8445,-5.8558,-5.8334,-5.8797,-5.8813,-5.8828,-5.9022,-5.9057,-5.9087,0,0,0,0,0,-5.8172,-5.8342,-5.829,-5.8311,-5.8399,-5.8499,-5.8509,-5.8448,-5.8354,-5.8432,-5.8414,-5.8326,-5.8534,-5.8439,-5.8462,-5.8579,-5.879,-5.8809,-5.8827,-5.9007,-5.905,-5.9086,0,0,0,0,0,0,-5.8359,-5.834,-5.8282,-5.8456,-5.8481,-5.847,-5.8567,-5.8496,-5.8547,-5.8528,-5.845,-5.8453,-5.8607,-5.8607,-5.8502,-5.878,-5.8645,-5.8669,-5.8775,-5.8815,-5.8847,-5.8844,-5.8341,0,0,0,0,0,-5.8421,-5.8503,-5.8482,-5.8637,-5.8652,-5.8608,-5.8649,-5.86,-5.8622,-5.8631,-5.8623,-5.8648,-5.8718,-5.8767,-5.883,-5.9021,-5.902,-5.9113,-5.9145,-5.9172,-5.9194,-5.9294,-5.9335,-5.8897,-5.8897,-5.8896,0,0,-5.8548,-5.8548,-5.8605,-5.8675,-5.8688,-5.8775,-5.8618,-5.8717,-5.878,-5.8646,-5.8778,-5.8774,-5.8796,-5.8963,-5.9036,-5.8967,-5.9315,-5.9196,-5.9218,-5.9224,-5.9317,-5.9359,-5.9396,-5.8909,-5.8907,-5.8905,0,0,-5.8825,-5.8834,-5.8964,-5.898,-5.9001,-5.8971,-5.9002,-5.9002,-5.8994,-5.9125,-5.9026,-5.9101,-5.9225,-5.9244,-5.9271,-5.9556,-5.9477,-5.9579,-5.9749,-5.9847,-5.9882,-5.9912,-6.0013,-6.0051,-5.96,-5.9601,-5.9601,0,-5.8981,-5.9109,-5.904,-5.9145,-5.9179,-5.9061,-5.9192,-5.9211,-5.9253,-5.9279,-5.9202,-5.9354,-5.9361,-5.953,-5.9599,-5.9625,-5.9658,-5.9577,-5.9882,-5.9912,-5.9939,-6.0035,-6.0073,-5.9613,-5.9612,-5.961,-5.9609,0,-5.9299,-5.9389,-5.9491,-5.9534,-5.9579,-5.9697,-5.9646,-5.97,-5.9647,-5.9625,-5.976,-5.9764,-5.9826,-5.9863,-5.9812,-6.0025,-5.9982,-5.9896,-5.9758,-5.9994,-6.0083,-6.0119,-5.963,-5.9626,-5.9622,-5.9619,0,0,-5.9695,-5.9698,-5.9737,-5.9754,-5.9769,-5.9837,-5.995,-6.001,-6.0058,-6.0091,-6.0183,-6.029,-6.021,-6.024,-6.019,-6.0277,-6.0502,-6.0179,-6.0178,-6.0239,-6.0737,-6.0802,-6.0845,-6.045,-6.0457,-6.0462,-6.0735,0,-5.9966,-6.0158,-6.01,-6.0293,-6.0375,-6.0265,-6.0363,-6.0383,-6.0365,-6.0432,-6.0412,-6.0489,-6.0377,-6.0394,-6.0475,-6.0458,-6.0601,-6.0437,-6.0535,-6.0539,-6.0533,-6.0892,-6.0961,-6.1218,-6.0769,-6.0775,-6.0779,0,-6.0309,-6.0354,-6.0557,-6.0557,-6.0589,-6.0679,-6.0729,-6.0794,-6.0815,-6.0795,-6.083,-6.0762,-6.0873,-6.0736,-6.0887,-6.0777,-6.0813,-6.0811,-6.0819,-6.0825,-6.0673,-6.0907,-6.1298,-6.1337,-6.0833,-6.0828,-6.0825,0,-6.0576,-6.0689,-6.0824,-6.0842,-6.0847,-6.0912,-6.0917,-6.093,-6.097,-6.1014,-6.1039,-6.1096,-6.1128,-6.1173,-6.1123,-6.1028,-6.1282,-6.1141,-6.1269,-6.1271,-6.1327,-6.1324,-6.1729,-6.1352,-6.1352,-6.1351,-6.135,0,-6.0885,-6.1013,-6.0944,-6.1027,-6.1167,-6.1099,-6.1239,-6.1231,-6.1244,-6.1323,-6.1232,-6.1308,-6.1238,-6.1308,-6.127,-6.14,-6.1415,-6.1403,-6.1391,-6.1411,-6.1413,-6.1434,-6.1414,-6.1361,-6.1359,-6.1357,-6.1355,0,-6.1208,-6.1167,-6.1307,-6.13,-6.1301,-6.1404,-6.1398,-6.1474,-6.145,-6.1552,-6.1572,-6.1534,-6.1612,-6.1567,-6.1647,-6.1621,-6.1791,-6.1755,-6.1784,-6.1775,-6.1905,-6.1894,-6.2337,-6.2392,-6.1981,-6.1985,-6.1988,0,-6.1408,-6.1503,-6.1506,-6.1553,-6.1564,-6.1641,-6.1681,-6.1617,-6.1663,-6.1693,-6.1766,-6.1837,-6.1889,-6.2019,-6.1999,-6.206,-6.2024,-6.2176,-6.2033,-6.205,-6.2026,-6.2021,-6.203,-6.2204,-6.2209,-6.2213,-6.2216,0,-6.1766,-6.1741,-6.1802,-6.1857,-6.1908,-6.1948,-6.1981,-6.2024,-6.1961,-6.2017,-6.2095,-6.2137,-6.2218,-6.2289,-6.2341,-6.2345,-6.2272,-6.2262,-6.2294,-6.2315,-6.2328,-6.2322,-6.1862,-6.2252,-6.2248,-6.2245,-6.2244,-6.2242,-6.2032,-6.2112,-6.2127,-6.2198,-6.2216,-6.2249,-6.232,-6.2305,-6.2369,-6.243,-6.2389,-6.2482,-6.2499,-6.2561,-6.2576,-6.2648,-6.2587,-6.2634,-6.2646,-6.2659,-6.2677,-6.2318,-6.2657,-6.2656,-6.2655,-6.2654,-6.2653,0,-6.2385,-6.2389,-6.2456,-6.2504,-6.2561,-6.2485,-6.2517,-6.257,-6.2653,-6.2675,-6.2729,-6.282,-6.2888,-6.2873,-6.2935,-6.2995,-6.2963,-6.3014,-6.3008,-6.3011,-6.2728,-6.2693,-6.3039,-6.3039,-6.3039,-6.3039,-6.3039,-6.3039,-6.2576,-6.2706,-6.2683,-6.2822,-6.2824,-6.2915,-6.2939,-6.2969,-6.2987,-6.3092,-6.3148,-6.3138,-6.3146,-6.3207,-6.3267,-6.326,-6.3287,-6.3351,-6.3333,-6.3069,-6.3031,-6.2994,-6.2961,-6.3357,-6.3358,-6.3609,-6.3611,-6.3613]},{"header":{"parameterUnit":"m.s-1","parameterCategory":1,"la1":30.2991,"la2":30.254,"lo1":-89.0895,"lo2":-89.0444,"dy":0.0017,"dx":0.0017,"nx":28,"ny":28,"refTime":"2023-09-27T09:00:00:Z","depth":0,"parameterNumber":3,"parameterNumberName":"V-component_of_WINDS"},"data":[0,0,0,0,0,0,0,0,0,0,0,0,0,0,0,0,0,0,0,0,0,0,0,0,0,0,0,0,0,0,0,0,0,0,0,0,0,0,0,0,0,0,0,0,0,0,0,0,0,0,0,0,0,0,0,0,0,0,-2.7994,-2.7994,0,-2.8003,-2.8003,-2.8003,-2.7961,-2.796,-2.7958,-2.7957,-2.7967,-2.7968,-2.797,0,0,0,0,0,0,0,0,0,0,0,0,0,-2.794,-2.7941,-2.7994,-2.7994,-2.7994,-2.8003,-2.8003,-2.8003,-2.7961,-2.796,-2.7958,-2.7957,-2.7966,-2.7968,-2.797,0,0,0,0,0,0,0,0,0,0,0,0,0,-2.7957,-2.7941,-2.7994,-2.7974,-2.7973,-2.8003,-2.8003,-2.8003,-2.7961,-2.796,-2.7958,-2.7956,-2.7966,-2.7968,-2.797,-2.8019,0,0,-2.7976,-2.7977,0,0,0,0,0,0,0,0,-2.7957,-2.7959,-2.7977,-2.7976,-2.7974,-2.7979,-2.7987,-2.8008,-2.7962,-2.7966,-2.7957,-2.7955,-2.7972,-2.7974,-2.7979,-2.802,-2.802,-2.7976,-2.7978,-2.7979,-2.7979,0,0,0,0,0,0,0,-2.7955,-2.7959,-2.7997,-2.7977,-2.7975,-2.7965,-2.7965,-2.7991,-2.7979,-2.7965,-2.7962,-2.7964,-2.7971,-2.7977,-2.7979,-2.802,-2.7976,-2.7978,-2.7979,-2.798,-2.8098,-2.81,0,0,0,0,0,0,-2.7957,-2.7958,-2.7997,-2.7998,-2.796,-2.7967,-2.7968,-2.7979,-2.7979,-2.7977,-2.7965,-2.7962,-2.7975,-2.7977,-2.7979,-2.8035,-2.7979,-2.798,-2.7982,-2.8096,-2.8099,-2.8101,0,0,0,0,0,0,-2.7956,-2.7961,-2.7997,-2.7977,-2.7981,-2.797,-2.7983,-2.798,-2.7987,-2.7979,-2.7976,-2.7974,-2.7973,-2.7977,-2.8009,-2.8035,-2.7981,-2.7983,-2.8094,-2.8097,-2.81,-2.8149,0,0,0,0,0,0,-2.7954,-2.7961,-2.798,-2.7978,-2.7982,-2.8027,-2.7985,-2.7982,-2.799,-2.7986,-2.7986,-2.7985,-2.7972,-2.8006,-2.8011,-2.8037,-2.7985,-2.8092,-2.8096,-2.8099,-2.8145,-2.8153,-2.816,0,0,0,0,0,-2.7953,-2.7994,-2.7981,-2.7986,-2.8006,-2.8028,-2.8031,-2.8015,-2.7993,-2.8011,-2.8006,-2.7985,-2.8031,-2.801,-2.8015,-2.8042,-2.809,-2.8094,-2.8099,-2.8141,-2.8151,-2.816,0,0,0,0,0,0,-2.8,-2.7993,-2.7979,-2.8021,-2.8025,-2.8021,-2.8045,-2.8027,-2.8038,-2.8033,-2.8014,-2.8014,-2.805,-2.8049,-2.8025,-2.8088,-2.8057,-2.8062,-2.8087,-2.8097,-2.8104,-2.8103,-2.7987,0,0,0,0,0,-2.8016,-2.8035,-2.8028,-2.8065,-2.8068,-2.8056,-2.8065,-2.8053,-2.8057,-2.8058,-2.8055,-2.806,-2.8075,-2.8086,-2.81,-2.8144,-2.8143,-2.8165,-2.8173,-2.8179,-2.8184,-2.8205,-2.8214,-2.8115,-2.8115,-2.8115,0,0,-2.8048,-2.8046,-2.806,-2.8075,-2.8077,-2.8096,-2.8058,-2.8081,-2.8094,-2.8062,-2.8092,-2.809,-2.8093,-2.8131,-2.8148,-2.8132,-2.8211,-2.8184,-2.8189,-2.8191,-2.821,-2.822,-2.8228,-2.8118,-2.8117,-2.8117,0,0,-2.8116,-2.8117,-2.8147,-2.815,-2.8152,-2.8144,-2.8151,-2.8149,-2.8146,-2.8175,-2.815,-2.8166,-2.8194,-2.8197,-2.8202,-2.8268,-2.8249,-2.8273,-2.8313,-2.8333,-2.8341,-2.8348,-2.837,-2.8378,-2.8278,-2.8278,-2.8278,0,-2.8155,-2.8184,-2.8165,-2.8189,-2.8195,-2.8166,-2.8195,-2.8198,-2.8206,-2.8211,-2.8193,-2.8225,-2.8226,-2.8263,-2.8278,-2.8284,-2.8291,-2.8273,-2.8342,-2.8348,-2.8354,-2.8375,-2.8384,-2.8281,-2.8281,-2.8281,-2.828,0,-2.8231,-2.8251,-2.8275,-2.8281,-2.8291,-2.8317,-2.8302,-2.8314,-2.83,-2.8293,-2.8322,-2.8321,-2.8333,-2.8341,-2.8329,-2.8376,-2.8365,-2.8345,-2.8313,-2.8367,-2.8386,-2.8394,-2.8285,-2.8284,-2.8283,-2.8283,0,0,-2.8331,-2.8325,-2.8334,-2.8336,-2.8335,-2.835,-2.8375,-2.8385,-2.8395,-2.8401,-2.842,-2.8442,-2.8422,-2.8428,-2.8415,-2.8434,-2.8484,-2.841,-2.841,-2.8423,-2.8534,-2.8549,-2.8558,-2.8471,-2.8472,-2.8473,-2.8533,0,-2.8396,-2.8437,-2.842,-2.8463,-2.848,-2.845,-2.8471,-2.8473,-2.8466,-2.8479,-2.8472,-2.8488,-2.8461,-2.8464,-2.8481,-2.8474,-2.8505,-2.847,-2.8488,-2.8488,-2.8487,-2.8568,-2.8585,-2.8641,-2.854,-2.8542,-2.8543,0,-2.8478,-2.8486,-2.8529,-2.8523,-2.853,-2.8549,-2.8556,-2.857,-2.857,-2.8564,-2.8569,-2.8551,-2.8574,-2.8542,-2.8572,-2.8548,-2.8554,-2.8551,-2.8553,-2.8554,-2.8519,-2.857,-2.8659,-2.8667,-2.8554,-2.8554,-2.8553,0,-2.8545,-2.8566,-2.8594,-2.8596,-2.8591,-2.8604,-2.8603,-2.8601,-2.8608,-2.8615,-2.8618,-2.8628,-2.8633,-2.864,-2.8625,-2.8604,-2.8657,-2.8624,-2.8651,-2.8652,-2.8664,-2.8663,-2.8754,-2.8669,-2.8669,-2.8669,-2.8669,0,-2.8619,-2.8647,-2.8623,-2.8641,-2.867,-2.8649,-2.8679,-2.8674,-2.8673,-2.8688,-2.8664,-2.8678,-2.8658,-2.867,-2.8659,-2.8684,-2.8687,-2.8682,-2.8678,-2.8684,-2.8684,-2.8687,-2.8683,-2.8671,-2.8671,-2.867,-2.867,0,-2.8698,-2.8684,-2.8712,-2.8704,-2.8702,-2.8724,-2.8716,-2.8732,-2.8722,-2.8742,-2.8745,-2.8731,-2.8744,-2.873,-2.8742,-2.8734,-2.8768,-2.876,-2.8768,-2.8765,-2.8793,-2.879,-2.8888,-2.8899,-2.8809,-2.8809,-2.881,0,-2.8746,-2.8767,-2.8759,-2.8767,-2.8767,-2.878,-2.8786,-2.8766,-2.8774,-2.8774,-2.8789,-2.88,-2.8808,-2.883,-2.8821,-2.883,-2.8821,-2.8854,-2.8822,-2.8826,-2.8819,-2.8818,-2.8819,-2.8861,-2.8862,-2.8863,-2.8863,0,-2.8833,-2.8824,-2.8833,-2.884,-2.8847,-2.8852,-2.8855,-2.8862,-2.8841,-2.8851,-2.8863,-2.8869,-2.8881,-2.8892,-2.8897,-2.8895,-2.8876,-2.8873,-2.888,-2.8885,-2.8889,-2.8886,-2.8785,-2.8871,-2.8871,-2.887,-2.887,-2.8869,-2.8897,-2.8912,-2.8909,-2.892,-2.8919,-2.8921,-2.8934,-2.8926,-2.8936,-2.8943,-2.8931,-2.8946,-2.8944,-2.895,-2.895,-2.8961,-2.8947,-2.8957,-2.8959,-2.8961,-2.8965,-2.8887,-2.8962,-2.8962,-2.8962,-2.8961,-2.8961,0,-2.898,-2.8976,-2.8986,-2.8989,-2.8997,-2.8977,-2.8978,-2.8986,-2.9,-2.8999,-2.9007,-2.902,-2.903,-2.902,-2.9028,-2.9039,-2.903,-2.9041,-2.904,-2.904,-2.8978,-2.8971,-2.9048,-2.9048,-2.9048,-2.9048,-2.9048,-2.9048,-2.9025,-2.9049,-2.904,-2.9063,-2.9058,-2.9072,-2.9074,-2.9076,-2.9075,-2.9091,-2.9098,-2.9091,-2.9087,-2.9094,-2.9101,-2.9098,-2.9102,-2.9116,-2.911,-2.9053,-2.9044,-2.9036,-2.9029,-2.9118,-2.9118,-2.917,-2.9171,-2.9171]}]]